Location: Champs
(48.8539°N, 2.6040°E)
Time: 07:59:31
(UTC+00:00)

COSMOS 2251 DEB - Visible Passes

Search period start: 01 April 2023 00:00
Search period end: 11 April 2023 00:00
Orbit: 741 x 772 km, 74.0° (Epoch: 30 March)

Date Brightness Start Highest point End Pass type
(mag) Time Alt. Az. Time Alt. Az. Time Alt. Az.
01 Apr ? 04:16:32 10° SE 04:19:18 15° E 04:22:04 10° ENE visible
03 Apr ? 04:34:49 10° SSE 04:39:27 32° ESE 04:44:04 10° NE visible
04 Apr ? 03:55:34 10° SE 03:59:10 19° E 04:02:45 10° NE visible
05 Apr ? 03:18:11 10° E 03:19:00 10° E 03:19:49 10° E visible
06 Apr ? 04:14:25 10° S 04:19:20 41° ESE 04:24:14 10° NE visible
07 Apr ? 03:34:49 10° SSE 03:38:58 24° E 03:43:07 10° NE visible
08 Apr ? 02:56:07 10° ESE 02:58:43 14° E 03:01:19 10° ENE visible
08 Apr ? 04:34:27 10° SSW 04:39:44 90° E 04:45:00 10° NNE visible
09 Apr ? 03:54:04 10° S 03:59:09 53° ESE 04:04:15 10° NNE visible
10 Apr ? 03:14:08 10° SSE 03:18:42 31° E 03:23:15 10° NE visible
